GW1109 Weather Reports


Display with metric or nautical units.
time (UTC)temp
F
wind
direction
speed
MPH
gust
MPH
rain 1hr
in
rain 24hr
in
rain mn
in
humidity
%
barometer
mb
20260507060050 52 288 4.0 10.0 0.00 0.46 0.00 93 1005.0
20260507054546 52 271 3.0 8.0 0.00 0.46 0.00 93 1004.9
20260507053045 52 294 6.0 12.0 0.00 0.46 0.00 93 1005.1
20260507051550 53 284 3.0 11.0 0.00 0.46 0.00 92 1005.0
20260507050049 53 275 7.0 13.0 0.00 0.46 0.00 93 1005.0
20260507044541 54 247 7.0 12.0 0.02 0.46 0.00 94 1004.9
20260507043042 55 265 5.0 14.0 0.05 0.46 0.00 95 1004.8
20260507041541 56 291 6.0 13.0 0.05 0.46 0.00 95 1004.4
20260507040043 56 293 7.0 13.0 0.05 0.46 0.00 95 1004.5
20260507034551 56 303 7.0 14.0 0.03 0.44 0.44 92 1004.8
20260507033051 58 273 8.0 19.0 0.01 0.41 0.41 92 1004.9
20260507031543 59 300 9.0 19.0 0.01 0.41 0.41 98 1004.6
20260507030043 61 329 5.0 14.0 0.02 0.41 0.41 100 1004.2
20260507024600 62 317 7.0 13.0 0.02 0.41 0.41 100 1004.2
20260507023050 64 236 5.0 12.0 0.01 0.40 0.40 100 1004.0
20260507021547 64 215 5.0 12.0 0.01 0.40 0.40 100 1004.2
20260507020105 64 262 5.0 16.0 0.00 0.39 0.39 100 1004.2
20260507014553 64 236 6.0 13.0 0.00 0.39 0.39 100 1004.3
20260507013054 64 181 5.0 17.0 0.00 0.39 0.39 100 1004.2
20260507011547 64 216 6.0 15.0 0.00 0.39 0.39 100 1004.2
20260507010050 64 167 7.0 15.0 0.00 0.39 0.39 100 1004.4
20260507004553 64 222 7.0 15.0 0.00 0.39 0.39 100 1004.5
20260507003049 64 216 6.0 17.0 0.00 0.39 0.39 100 1004.4
20260507001545 64 218 6.0 16.0 0.00 0.39 0.39 100 1004.3
20260507000050 64 212 5.0 17.0 0.00 0.39 0.39 100 1004.1
20260506234551 64 209 8.0 20.0 0.00 0.39 0.39 100 1004.3
20260506233101 64 214 6.0 22.0 0.00 0.39 0.39 100 1004.4
20260506231553 64 213 9.0 17.0 0.00 0.39 0.39 100 1004.3
20260506230049 64 188 8.0 17.0 0.00 0.39 0.39 100 1004.4
20260506224541 64 178 7.0 15.0 0.00 0.39 0.39 100 1004.5
20260506223045 64 174 7.0 17.0 0.00 0.39 0.39 100 1004.7
20260506221549 64 209 9.0 22.0 0.01 0.39 0.39 100 1004.7
20260506220049 65 207 9.0 19.0 0.01 0.39 0.39 100 1004.8
20260506214550 65 199 6.0 13.0 0.02 0.39 0.39 100 1005.0
20260506213057 65 169 6.0 17.0 0.03 0.38 0.38 100 1005.0
20260506211543 65 139 5.0 13.0 0.06 0.38 0.38 100 1005.1
20260506210048 65 105 4.0 10.0 0.08 0.38 0.38 100 1005.2
20260506204548 65 187 3.0 7.0 0.08 0.37 0.37 100 1005.6
20260506203047 65 163 3.0 8.0 0.07 0.35 0.35 100 1005.6
20260506201546 65 143 2.0 8.0 0.06 0.32 0.32 100 1005.5
20260506200052 65 182 1.0 7.0 0.09 0.30 0.30 100 1005.3
20260506194541 65 199 2.0 8.0 0.11 0.29 0.29 99 1005.7
20260506193046 64 205 3.0 10.0 0.14 0.28 0.28 98 1005.8
20260506191546 64 174 3.0 9.0 0.21 0.26 0.26 97 1006.3
20260506190047 64 215 3.0 9.0 0.21 0.21 0.21 95 1006.4
20260506184552 63 225 4.0 13.0 0.17 0.17 0.17 93 1006.2
20260506183054 63 250 6.0 15.0 0.14 0.14 0.14 89 1006.7
20260506181615 64 230 1.0 5.0 0.05 0.05 0.05 80 1006.5
20260506180048 66 221 4.0 8.0 0.00 0.00 0.00 67 1006.1
20260506174545 67 189 4.0 15.0 0.00 0.00 0.00 62 1005.8
20260506173058 68 202 6.0 15.0 0.00 0.00 0.00 61 1006.0
20260506171544 69 215 8.0 21.0 0.00 0.00 0.00 58 1006.1
20260506170049 69 237 5.0 15.0 0.00 0.00 0.00 59 1006.2
20260506164548 68 211 9.0 18.0 0.00 0.00 0.00 60 1006.6
20260506163047 68 215 7.0 15.0 0.00 0.00 0.00 61 1006.9
20260506161548 68 217 6.0 17.0 0.00 0.00 0.00 62 1007.2
20260506160052 67 217 8.0 15.0 0.00 0.00 0.00 63 1007.5
20260506154552 68 188 7.0 15.0 0.00 0.00 0.00 63 1007.9
20260506153104 66 240 7.0 20.0 0.00 0.00 0.00 67 1008.1
20260506151544 66 221 4.0 18.0 0.00 0.00 0.00 66 1007.7
20260506150059 66 229 8.0 15.0 0.00 0.00 0.00 66 1008.0
20260506144555 66 217 7.0 17.0 0.00 0.00 0.00 67 1007.8
20260506143045 65 226 9.0 17.0 0.00 0.00 0.00 68 1007.9
20260506141543 65 206 7.0 12.0 0.00 0.00 0.00 69 1007.7
20260506140041 65 210 4.0 10.0 0.00 0.00 0.00 71 1007.9
20260506134540 64 227 6.0 11.0 0.00 0.00 0.00 72 1008.1
20260506133042 64 228 5.0 11.0 0.00 0.00 0.00 72 1008.2
20260506131553 63 229 5.0 13.0 0.00 0.00 0.00 72 1008.1
20260506130047 63 215 5.0 11.0 0.00 0.00 0.00 73 1008.2
20260506124546 62 271 5.0 14.0 0.00 0.00 0.00 74 1008.1
20260506123041 62 213 5.0 15.0 0.00 0.00 0.00 73 1008.3
20260506121542 62 209 5.0 13.0 0.00 0.00 0.00 74 1008.1
20260506120048 61 228 6.0 12.0 0.00 0.00 0.00 75 1008.6
20260506114547 61 200 6.0 13.0 0.00 0.00 0.00 75 1008.7
20260506113046 60 222 5.0 11.0 0.00 0.00 0.00 76 1008.9
20260506111545 60 227 5.0 11.0 0.00 0.00 0.00 76 1009.0
20260506110042 60 216 6.0 13.0 0.00 0.00 0.00 76 1008.8
20260506104541 59 247 5.0 9.0 0.00 0.00 0.00 76 1008.9
20260506103053 59 232 5.0 10.0 0.00 0.00 0.00 76 1009.0
20260506101547 59 221 5.0 10.0 0.00 0.00 0.00 76 1008.6
20260506100045 59 197 4.0 11.0 0.00 0.00 0.00 74 1008.7
20260506094545 59 224 5.0 9.0 0.00 0.00 0.00 74 1008.7
20260506093041 58 189 4.0 7.0 0.00 0.00 0.00 73 1008.6
20260506091550 58 225 4.0 9.0 0.00 0.00 0.00 73 1008.6
20260506090056 59 218 4.0 10.0 0.00 0.00 0.00 71 1008.4
20260506084551 59 229 5.0 11.0 0.00 0.00 0.00 70 1008.6
20260506083047 59 219 3.0 11.0 0.00 0.00 0.00 70 1008.3
20260506081546 59 207 4.0 8.0 0.00 0.00 0.00 69 1008.2
20260506073048 60 269 2.0 6.0 0.00 0.00 0.00 67 1008.4
20260506071549 60 215 4.0 7.0 0.00 0.00 0.00 66 1008.2
20260506061544 61 176 3.0 9.0 0.00 0.00 0.00 64 1007.9